This is the latest recevied weather packets stored in our database for station/object WX6YYZ. If no packets are shown the sender has not sent any weather packets the latest 10 day(s).
| Time | Temp. | Humidity | Pressure | Rain* | Wind** | Luminosity | Snow |
|---|---|---|---|---|---|---|---|
| 1777390296 | 12.78° C | 73% | 1019 hPa | 0 mm | - | - | - |
| 1777388188 | 10.56° C | 81% | 1019 hPa | 0 mm | - | - | - |
| 1777387586 | 10° C | 82% | 1019 hPa | 0 mm | - | - | - |
| 1777386984 | 10° C | 83% | 1019 hPa | 0 mm | - | - | - |
| 1777385178 | 8.89° C | 86% | 1019 hPa | 0 mm | - | - | - |
| 1777383642 | 8.89° C | 85% | 1018.6 hPa | 0 mm | - | - | - |
| 1777381837 | 8.89° C | 85% | 1018.3 hPa | 0 mm | - | - | - |
| 1777381536 | 8.89° C | 84% | 1018.3 hPa | 0 mm | - | - | - |
| 1777381236 | 8.89° C | 84% | 1018.3 hPa | 0 mm | - | - | - |
| 1777380935 | 8.89° C | 84% | 1017.9 hPa | 0 mm | - | - | - |
| 1777379066 | 9.44° C | 83% | 1017.6 hPa | 0 mm | - | - | - |
| 1777375930 | 9.44° C | 83% | 1017.3 hPa | 0 mm | - | - | - |
| 1777374726 | 9.44° C | 82% | 1017.3 hPa | 0 mm | - | - | - |
| 1777374425 | 9.44° C | 83% | 1017.3 hPa | 0 mm | - | - | - |
| 1777373221 | 10° C | 82% | 1017.3 hPa | 0 mm | - | - | - |
| 1777371986 | 9.44° C | 82% | 1017.3 hPa | 0 mm | - | - | - |
| 1777370781 | 10° C | 80% | 1017.3 hPa | 0 mm | - | - | - |
| 1777366143 | 10.56° C | 80% | 1018.3 hPa | 0 mm | - | - | - |
| 1777359540 | 11.67° C | 76% | 1019 hPa | 0 mm | - | - | - |
| 1777357971 | 11.67° C | 76% | 1018.6 hPa | 0 mm | - | - | - |
| 1777357369 | 11.67° C | 76% | 1018.6 hPa | 0 mm | - | - | - |
| 1777356166 | 12.22° C | 75% | 1018.3 hPa | 0 mm | - | - | - |
| 1777353756 | 12.22° C | 72% | 1018.3 hPa | 0 mm | - | - | - |
| 1777352820 | 12.22° C | 70% | 1018.3 hPa | 0 mm | - | - | - |
| 1777352219 | 12.78° C | 68% | 1018.3 hPa | 0 mm | - | - | - |
* Rain latest hour (hover to see other rain measurements)
** Current wind speed in m/s (hover to see current wind gust speed)